FW5145 Weather Reports


Display with metric or nautical units.
time (UTC)temp
F
wind
direction
speed
MPH
gust
MPH
rain 1hr
in
rain 24hr
in
rain mn
in
humidity
%
barometer
mb
20260504050533 51 0 0.0 2.0 0.00 0.00 0.00 100 1012.7
20260504050105 51 0 0.0 2.0 0.00 0.00 0.00 100 1012.5
20260504045531 51 0 0.0 1.0 0.00 0.00 0.00 100 1012.6
20260504045032 51 0 0.0 1.0 0.00 0.00 0.00 100 1012.6
20260504044543 51 0 0.0 0.0 0.00 0.00 0.00 100 1012.6
20260504044033 51 0 0.0 0.0 0.00 0.00 0.00 100 1012.6
20260504043533 50 0 0.0 0.0 0.00 0.00 0.00 100 1012.6
20260504043044 50 0 0.0 0.0 0.00 0.00 0.00 100 1012.6
20260504042531 50 0 0.0 0.0 0.00 0.00 0.00 100 1012.5
20260504042033 50 0 0.0 1.0 0.00 0.00 0.00 100 1012.5
20260504041539 50 0 0.0 1.0 0.00 0.00 0.00 100 1012.5
20260504041031 50 0 0.0 1.0 0.00 0.00 0.00 100 1012.4
20260504040532 50 0 0.0 2.0 0.00 0.00 0.00 100 1012.5
20260504035532 50 261 0.0 2.0 0.00 0.00 0.00 100 1012.4
20260504035034 50 0 0.0 2.0 0.00 0.00 0.00 100 1012.5
20260504034552 50 267 0.0 2.0 0.00 0.00 0.00 100 1012.4
20260504034033 50 0 0.0 3.0 0.00 0.00 0.00 100 1012.4
20260504033531 50 0 0.0 3.0 0.00 0.00 0.00 100 1012.5
20260504033043 50 287 0.0 3.0 0.00 0.00 0.00 100 1012.5
20260504032532 50 238 0.0 3.0 0.00 0.00 0.00 100 1012.7
20260504032033 50 222 0.0 3.0 0.00 0.00 0.00 100 1012.5
20260504031557 50 0 0.0 3.0 0.00 0.00 0.00 100 1012.6
20260504031032 50 0 0.0 3.0 0.00 0.00 0.00 100 1012.6
20260504030531 50 0 0.0 2.0 0.00 0.00 0.00 100 1012.6
20260504030049 50 0 0.0 3.0 0.00 0.00 0.00 100 1012.7
20260504025533 50 0 0.0 3.0 0.00 0.00 0.00 100 1012.6
20260504025034 51 0 1.0 3.0 0.00 0.00 0.00 100 1012.5
20260504024546 51 246 0.0 3.0 0.00 0.00 0.00 100 1012.5
20260504024032 51 251 0.0 3.0 0.00 0.00 0.00 100 1012.5
20260504023532 51 0 0.0 3.0 0.00 0.00 0.00 100 1012.5
20260504023043 51 0 0.0 3.0 0.00 0.00 0.00 100 1012.4
20260504022533 51 251 0.0 3.0 0.00 0.00 0.00 100 1012.4
20260504022031 51 236 0.0 3.0 0.00 0.00 0.00 100 1012.4
20260504021547 51 266 0.0 4.0 0.00 0.00 0.00 100 1012.2
20260504021032 51 0 0.0 4.0 0.00 0.00 0.00 100 1012.2
20260504020531 51 0 1.0 4.0 0.00 0.00 0.00 100 1012.2
20260504020046 51 0 0.0 2.0 0.00 0.00 0.00 100 1012.2
20260504015532 51 0 0.0 2.0 0.00 0.00 0.00 100 1012.2
20260504015031 51 0 0.0 2.0 0.00 0.00 0.00 100 1012.2
20260504014553 51 0 0.0 3.0 0.00 0.00 0.00 100 1012.2
20260504014032 51 0 0.0 3.0 0.00 0.00 0.00 100 1012.2
20260504013535 51 236 0.0 3.0 0.00 0.00 0.00 100 1012.2
20260504013048 51 254 0.0 3.0 0.00 0.00 0.00 100 1012.2
20260504012532 51 0 0.0 2.0 0.00 0.00 0.00 100 1012.1
20260504012032 51 0 0.0 2.0 0.00 0.00 0.00 100 1012.1
20260504011546 51 0 0.0 2.0 0.00 0.00 0.00 100 1012.1
20260504011033 51 0 0.0 0.0 0.00 0.00 0.00 100 1012.2
20260504010533 51 0 0.0 0.0 0.00 0.00 0.00 100 1012.1
20260504010041 51 0 0.0 2.0 0.00 0.00 0.00 100 1012.1
20260504005532 51 0 0.0 2.0 0.00 0.00 0.00 100 1012.1
20260504005034 51 245 0.0 3.0 0.00 0.00 0.00 100 1012.1
20260504004539 51 0 0.0 3.0 0.00 0.00 0.00 100 1012.0
20260504004033 51 0 0.0 3.0 0.00 0.00 0.00 100 1012.1
20260504003531 51 0 0.0 3.0 0.00 0.00 0.00 100 1012.1
20260504003037 51 0 0.0 4.0 0.00 0.00 0.00 100 1012.1
20260504002531 51 0 0.0 4.0 0.00 0.00 0.00 100 1012.0
20260504002032 51 267 0.0 4.0 0.00 0.00 0.00 100 1011.9
20260504001545 51 257 0.0 4.0 0.00 0.00 0.00 100 1011.9
20260504001033 51 0 0.0 3.0 0.00 0.00 0.00 100 1011.9
20260504000531 51 214 0.0 3.0 0.00 0.00 0.00 100 1012.0
20260504000047 51 236 0.0 3.0 0.00 0.00 0.00 100 1012.0
20260503235532 51 0 0.0 1.0 0.00 0.00 0.00 100 1011.9
20260503235032 51 0 0.0 1.0 0.00 0.00 0.00 100 1012.0
20260503234539 51 0 0.0 3.0 0.00 0.00 0.00 100 1012.0
20260503234034 51 0 0.0 3.0 0.00 0.00 0.00 100 1012.1
20260503233535 51 0 0.0 3.0 0.00 0.00 0.00 100 1012.0
20260503233037 51 0 0.0 3.0 0.00 0.00 0.00 100 1012.0
20260503232532 51 0 0.0 3.0 0.00 0.00 0.00 100 1011.9
20260503232032 52 0 0.0 2.0 0.00 0.00 0.00 100 1012.0
20260503231545 52 0 0.0 1.0 0.00 0.00 0.00 100 1012.0
20260503231032 52 0 0.0 1.0 0.00 0.00 0.00 100 1012.0
20260503230532 52 0 0.0 2.0 0.00 0.00 0.00 100 1012.0
20260503230059 52 0 0.0 2.0 0.00 0.00 0.00 100 1011.9
20260503225533 52 0 0.0 0.0 0.00 0.00 0.00 100 1011.8
20260503225032 52 0 0.0 1.0 0.00 0.00 0.00 100 1011.7
20260503224542 52 0 0.0 2.0 0.00 0.00 0.00 100 1011.8
20260503224033 52 0 0.0 2.0 0.00 0.00 0.00 100 1011.7
20260503223532 52 0 0.0 2.0 0.00 0.00 0.00 100 1011.7
20260503223048 52 0 0.0 1.0 0.00 0.00 0.00 100 1011.7
20260503222531 52 0 0.0 2.0 0.00 0.00 0.00 100 1011.8
20260503222035 52 0 0.0 2.0 0.00 0.00 0.00 100 1011.7
20260503221543 53 0 0.0 2.0 0.00 0.00 0.00 100 1011.6
20260503221033 53 0 0.0 1.0 0.00 0.00 0.00 100 1011.7
20260503220534 53 0 0.0 1.0 0.00 0.00 0.00 100 1011.6
20260503220044 53 0 0.0 1.0 0.00 0.00 0.00 100 1011.6
20260503215532 53 0 0.0 1.0 0.00 0.00 0.00 100 1011.3
20260503215032 53 0 0.0 3.0 0.00 0.00 0.00 100 1011.6
20260503214543 53 0 0.0 3.0 0.00 0.00 0.00 100 1011.7
20260503214032 53 0 0.0 3.0 0.00 0.00 0.00 100 1011.6
20260503213532 53 0 0.0 3.0 0.00 0.00 0.00 100 1011.7
20260503213038 54 0 0.0 3.0 0.00 0.00 0.00 100 1011.6
20260503212533 54 208 0.0 3.0 0.00 0.00 0.00 100 1011.5
20260503212032 54 0 0.0 3.0 0.00 0.00 0.00 100 1011.5
20260503211604 54 0 0.0 3.0 0.00 0.00 0.00 100 1011.5
20260503211032 54 0 0.0 3.0 0.00 0.00 0.00 100 1011.5
20260503210531 54 0 0.0 2.0 0.00 0.00 0.00 100 1011.5
20260503210044 54 0 0.0 0.0 0.00 0.00 0.00 100 1011.4
20260503205531 54 0 0.0 0.0 0.00 0.00 0.00 100 1011.3
20260503205031 54 0 0.0 0.0 0.00 0.00 0.00 100 1011.3
20260503204543 55 0 0.0 0.0 0.00 0.00 0.00 100 1011.2
20260503204036 55 0 0.0 0.0 0.00 0.00 0.00 100 1011.3
20260503203535 55 0 0.0 0.0 0.00 0.00 0.00 100 1011.2
20260503203049 55 0 0.0 0.0 0.00 0.00 0.00 100 1011.2
20260503202532 55 0 0.0 0.0 0.00 0.00 0.00 100 1011.2
20260503202033 55 0 0.0 0.0 0.00 0.00 0.00 100 1011.0
20260503201545 55 0 0.0 0.0 0.00 0.00 0.00 100 1011.1
20260503201031 56 0 0.0 0.0 0.00 0.00 0.00 100 1010.8
20260503200532 56 0 0.0 0.0 0.00 0.00 0.00 100 1010.8
20260503200055 56 0 0.0 2.0 0.00 0.00 0.00 100 1010.6
20260503195531 56 0 0.0 4.0 0.00 0.02 0.00 100 1010.7
20260503195031 56 0 0.0 4.0 0.00 0.02 0.00 100 1010.6
20260503194545 56 0 0.0 3.0 0.00 0.02 0.00 100 1010.6
20260503194032 57 0 0.0 2.0 0.00 0.02 0.00 100 1010.5
20260503193531 57 0 0.0 3.0 0.00 0.02 0.00 100 1010.5
20260503193055 57 0 0.0 4.0 0.00 0.02 0.00 100 1010.4
20260503192532 58 0 1.0 4.0 0.00 0.02 0.00 100 1010.2
20260503192033 58 207 0.0 5.0 0.00 0.02 0.00 100 1010.3
20260503191543 58 200 1.0 5.0 0.00 0.02 0.00 100 1010.4
20260503191031 59 0 0.0 4.0 0.00 0.02 0.00 100 1010.3
20260503190532 59 203 1.0 4.0 0.00 0.02 0.00 100 1010.2
20260503190044 59 234 0.0 4.0 0.00 0.02 0.00 100 1010.2
20260503185531 60 206 1.0 5.0 0.00 0.02 0.00 100 1010.1
20260503185032 60 0 1.0 5.0 0.00 0.02 0.00 100 1010.1
20260503184549 60 256 0.0 4.0 0.00 0.02 0.00 100 1009.9
20260503184031 61 0 1.0 4.0 0.00 0.02 0.00 100 1009.9
20260503183530 61 193 1.0 3.0 0.00 0.02 0.00 100 1009.8
20260503183043 61 0 1.0 3.0 0.00 0.02 0.00 100 1009.8
20260503182536 61 0 0.0 3.0 0.00 0.02 0.00 100 1009.7
20260503182032 61 0 0.0 3.0 0.00 0.02 0.00 100 1009.8
20260503181552 61 202 0.0 0.0 0.00 0.02 0.00 100 1009.6
20260503181032 62 0 0.0 4.0 0.00 0.02 0.00 100 1009.4
20260503180532 62 0 0.0 4.0 0.00 0.02 0.00 100 1009.5
20260503180106 62 0 1.0 4.0 0.00 0.02 0.00 100 1009.4
20260503175532 63 273 1.0 4.0 0.00 0.02 0.00 100 1009.4
20260503175031 63 254 0.0 4.0 0.00 0.02 0.00 100 1009.3
20260503174554 63 261 1.0 6.0 0.00 0.02 0.00 100 1009.5
20260503174031 63 165 1.0 6.0 0.00 0.02 0.00 100 1009.5
20260503173532 62 251 0.0 3.0 0.00 0.02 0.00 100 1009.4
20260503173056 62 203 1.0 6.0 0.00 0.02 0.00 100 1009.5
20260503172532 62 0 0.0 6.0 0.00 0.02 0.00 100 1009.5
20260503172034 62 240 1.0 6.0 0.00 0.02 0.00 100 1009.5
20260503171539 62 0 1.0 6.0 0.00 0.02 0.00 100 1009.6
20260503171033 63 263 2.0 5.0 0.00 0.02 0.00 100 1009.6
20260503170533 63 286 2.0 6.0 0.00 0.02 0.00 100 1009.6
20260503150534 65 196 2.0 7.0 0.00 0.12 0.00 100 1010.0
20260503131032 64 229 2.0 9.0 0.00 0.12 0.00 100 1010.1
20260503130531 64 236 2.0 9.0 0.00 0.12 0.00 100 1010.2
20260503110532 63 256 3.0 8.0 0.00 0.12 0.00 100 1010.2
20260503081543 56 0 1.0 8.0 0.00 0.12 0.00 100 1010.5
20260503081033 55 218 1.0 5.0 0.00 0.12 0.00 100 1010.4
20260503080533 55 0 0.0 7.0 0.00 0.12 0.00 100 1010.4
20260503072535 54 199 0.0 4.0 0.00 0.12 0.00 100 1010.3
20260503072032 54 225 0.0 3.0 0.00 0.12 0.00 100 1010.3
20260503071545 54 0 0.0 3.0 0.00 0.12 0.00 100 1010.4
20260503071036 54 0 0.0 3.0 0.00 0.12 0.00 100 1010.3
20260503070535 54 201 0.0 3.0 0.00 0.12 0.00 100 1010.3
20260503070103 54 194 0.0 3.0 0.00 0.12 0.00 100 1010.3
20260503055033 54 0 0.0 0.0 0.00 0.12 0.00 100 1009.9
20260503054542 53 0 0.0 0.0 0.00 0.12 0.00 100 1009.9
20260503054032 54 0 0.0 0.0 0.00 0.12 0.00 100 1009.8